| time (UTC) | temp C | wind direction | speed KPH | gust KPH | rain 1hr cm | rain 24hr cm | rain mn cm | humidity % | barometer mb |
| 20260510051541 | 24 | 100 | 9.7 | 19.3 | 0.00 | 0.66 | 0.00 | 91 | 1010.6 |
| 20260510050000 | 24 | 179 | 9.7 | 22.5 | 0.00 | 0.66 | 0.66 | 91 | 1010.5 |
| 20260510044543 | 25 | 39 | 8.0 | 20.9 | 0.00 | 0.66 | 0.66 | 91 | 1010.7 |
| 20260510043010 | 24 | 101 | 8.0 | 22.5 | 0.00 | 0.66 | 0.66 | 90 | 1010.9 |
| 20260510041554 | 24 | 131 | 6.4 | 14.5 | 0.00 | 0.66 | 0.66 | 90 | 1011.2 |
| 20260510040020 | 24 | 122 | 6.4 | 16.1 | 0.00 | 0.66 | 0.66 | 90 | 1010.9 |
| 20260510034603 | 24 | 150 | 6.4 | 12.9 | 0.00 | 0.66 | 0.66 | 90 | 1010.6 |
| 20260510033036 | 24 | 96 | 6.4 | 19.3 | 0.00 | 0.66 | 0.66 | 90 | 1010.9 |
| 20260510031512 | 25 | 117 | 9.7 | 20.9 | 0.00 | 0.66 | 0.66 | 90 | 1010.9 |
| 20260510030054 | 25 | 86 | 11.3 | 25.7 | 0.00 | 0.66 | 0.66 | 90 | 1010.9 |
| 20260510024518 | 25 | 110 | 11.3 | 22.5 | 0.00 | 0.66 | 0.66 | 90 | 1010.6 |
| 20260510023101 | 26 | 121 | 11.3 | 24.1 | 0.00 | 0.66 | 0.66 | 86 | 1010.2 |
| 20260510021526 | 26 | 129 | 4.8 | 12.9 | 0.00 | 0.66 | 0.66 | 78 | 1009.8 |
| 20260510020108 | 25 | 148 | 8.0 | 16.1 | 0.00 | 0.66 | 0.66 | 84 | 1009.5 |
| 20260510014538 | 23 | 112 | 0.0 | 6.4 | 0.00 | 0.66 | 0.66 | 92 | 1008.8 |
| 20260510013013 | 23 | 314 | 0.0 | 4.8 | 0.00 | 0.66 | 0.66 | 92 | 1008.6 |
| 20260510011608 | 24 | 290 | 1.6 | 9.7 | 0.08 | 0.66 | 0.66 | 92 | 1007.9 |
| 20260510010029 | 24 | 302 | 0.0 | 0.0 | 0.30 | 0.66 | 0.66 | 92 | 1007.7 |
| 20260510004606 | 24 | 307 | 0.0 | 8.0 | 0.43 | 0.66 | 0.66 | 90 | 1007.3 |
| 20260510003036 | 23 | 97 | 6.4 | 12.9 | 0.56 | 0.64 | 0.64 | 89 | 1007.7 |
| 20260510001506 | 24 | 15 | 9.7 | 17.7 | 0.56 | 0.56 | 0.56 | 87 | 1007.9 |
| 20260510000050 | 25 | 53 | 3.2 | 20.9 | 0.36 | 0.36 | 0.36 | 83 | 1007.5 |
| 20260509234519 | 26 | 129 | 0.0 | 9.7 | 0.23 | 0.23 | 0.23 | 85 | 1007.6 |
| 20260509233104 | 29 | 242 | 6.4 | 16.1 | 0.08 | 0.08 | 0.08 | 73 | 1007.2 |
| 20260509231533 | 31 | 47 | 3.2 | 12.9 | 0.00 | 0.00 | 0.00 | 64 | 1007.0 |
| 20260509230006 | 31 | 90 | 3.2 | 11.3 | 0.00 | 0.00 | 0.00 | 62 | 1006.9 |
| 20260509224557 | 31 | 86 | 6.4 | 12.9 | 0.00 | 0.03 | 0.00 | 63 | 1006.8 |
| 20260509223030 | 32 | 108 | 1.6 | 8.0 | 0.00 | 0.03 | 0.00 | 61 | 1006.7 |
| 20260509221612 | 32 | 212 | 0.0 | 6.4 | 0.00 | 0.03 | 0.00 | 59 | 1006.7 |
| 20260509220048 | 32 | 188 | 3.2 | 8.0 | 0.00 | 0.03 | 0.00 | 59 | 1006.6 |
| 20260509214515 | 32 | 352 | 0.0 | 4.8 | 0.00 | 0.03 | 0.00 | 60 | 1006.6 |
| 20260509213116 | 31 | 328 | 4.8 | 16.1 | 0.00 | 0.03 | 0.00 | 62 | 1006.6 |
| 20260509211548 | 32 | 91 | 6.4 | 8.0 | 0.00 | 0.03 | 0.00 | 60 | 1006.6 |
| 20260509210106 | 32 | 316 | 3.2 | 11.3 | 0.00 | 0.03 | 0.00 | 61 | 1006.9 |
| 20260509204544 | 32 | 295 | 4.8 | 11.3 | 0.00 | 0.03 | 0.00 | 60 | 1007.0 |
| 20260509203019 | 31 | 352 | 3.2 | 11.3 | 0.00 | 0.03 | 0.00 | 63 | 1007.3 |
| 20260509201700 | 32 | 54 | 1.6 | 12.9 | 0.00 | 0.03 | 0.00 | 63 | 1007.3 |
| 20260509200023 | 31 | 309 | 8.0 | 16.1 | 0.00 | 0.03 | 0.00 | 63 | 1007.5 |
| 20260509194600 | 31 | 104 | 4.8 | 9.7 | 0.00 | 0.03 | 0.00 | 62 | 1007.7 |
| 20260509193029 | 31 | 348 | 3.2 | 11.3 | 0.00 | 0.03 | 0.00 | 64 | 1007.7 |
| 20260509191504 | 31 | 273 | 3.2 | 11.3 | 0.00 | 0.03 | 0.00 | 65 | 1008.0 |
| 20260509190048 | 31 | 352 | 3.2 | 8.0 | 0.00 | 0.03 | 0.00 | 67 | 1007.9 |
| 20260509184513 | 30 | 139 | 3.2 | 8.0 | 0.00 | 0.05 | 0.00 | 69 | 1008.2 |
| 20260509183057 | 30 | 219 | 1.6 | 8.0 | 0.00 | 0.05 | 0.00 | 71 | 1008.4 |
| 20260509181528 | 29 | 280 | 3.2 | 14.5 | 0.00 | 0.05 | 0.00 | 73 | 1008.7 |
| 20260509180107 | 28 | 182 | 1.6 | 11.3 | 0.00 | 0.05 | 0.00 | 77 | 1009.1 |
| 20260509174534 | 28 | 200 | 6.4 | 17.7 | 0.00 | 0.08 | 0.00 | 78 | 1009.2 |
| 20260509173003 | 27 | 172 | 6.4 | 14.5 | 0.00 | 0.08 | 0.00 | 79 | 1009.3 |
| 20260509171548 | 27 | 193 | 4.8 | 8.0 | 0.00 | 0.08 | 0.00 | 81 | 1009.7 |
| 20260509170016 | 27 | 237 | 3.2 | 8.0 | 0.00 | 0.08 | 0.00 | 82 | 1009.8 |
| 20260509164556 | 27 | 226 | 0.0 | 11.3 | 0.00 | 0.13 | 0.00 | 83 | 1009.8 |
| 20260509163024 | 27 | 271 | 1.6 | 4.8 | 0.00 | 0.13 | 0.00 | 83 | 1009.7 |
| 20260509161607 | 27 | 190 | 0.0 | 3.2 | 0.00 | 0.13 | 0.00 | 83 | 1009.8 |
| 20260509160039 | 27 | 148 | 0.0 | 0.0 | 0.00 | 0.13 | 0.00 | 85 | 1009.8 |
| 20260509154506 | 26 | 148 | 0.0 | 3.2 | 0.00 | 0.15 | 0.00 | 87 | 1009.7 |
| 20260509153050 | 25 | 183 | 0.0 | 6.4 | 0.00 | 0.15 | 0.00 | 89 | 1009.6 |
| 20260509151519 | 25 | 331 | 0.0 | 1.6 | 0.00 | 0.15 | 0.00 | 92 | 1009.8 |
| 20260509150057 | 25 | 331 | 0.0 | 4.8 | 0.00 | 0.15 | 0.00 | 92 | 1009.7 |
| 20260509144535 | 25 | 294 | 4.8 | 8.0 | 0.00 | 0.15 | 0.00 | 94 | 1009.5 |
| 20260509143004 | 24 | 169 | 0.0 | 3.2 | 0.00 | 0.15 | 0.00 | 95 | 1009.3 |
| 20260509141551 | 24 | 141 | 4.8 | 9.7 | 0.00 | 0.15 | 0.00 | 95 | 1009.0 |
| 20260509140022 | 24 | 170 | 3.2 | 8.0 | 0.00 | 0.15 | 0.00 | 96 | 1009.0 |
| 20260509134601 | 24 | 200 | 1.6 | 8.0 | 0.00 | 0.15 | 0.00 | 96 | 1009.2 |
| 20260509133034 | 23 | 240 | 3.2 | 6.4 | 0.00 | 0.15 | 0.00 | 97 | 1009.8 |
| 20260509131504 | 23 | 230 | 0.0 | 0.0 | 0.00 | 0.15 | 0.00 | 97 | 1009.9 |
| 20260509130047 | 23 | 186 | 1.6 | 4.8 | 0.00 | 0.15 | 0.00 | 97 | 1009.9 |
| 20260509124519 | 23 | 176 | 0.0 | 3.2 | 0.00 | 0.15 | 0.00 | 97 | 1009.5 |
| 20260509123108 | 23 | 82 | 0.0 | 1.6 | 0.00 | 0.15 | 0.00 | 97 | 1009.6 |
| 20260509121541 | 23 | 94 | 0.0 | 4.8 | 0.00 | 0.15 | 0.00 | 96 | 1009.4 |
| 20260509120015 | 23 | 94 | 0.0 | 6.4 | 0.00 | 0.15 | 0.00 | 96 | 1009.1 |
| 20260509114556 | 23 | 330 | 0.0 | 1.6 | 0.00 | 0.15 | 0.00 | 96 | 1009.2 |
| 20260509113021 | 23 | 330 | 0.0 | 4.8 | 0.00 | 0.15 | 0.00 | 96 | 1009.9 |
| 20260509111602 | 23 | 311 | 4.8 | 6.4 | 0.00 | 0.15 | 0.00 | 96 | 1009.4 |
| 20260509110033 | 23 | 161 | 0.0 | 3.2 | 0.00 | 0.15 | 0.00 | 96 | 1009.2 |
| 20260509104503 | 23 | 161 | 0.0 | 0.0 | 0.00 | 0.15 | 0.00 | 96 | 1008.8 |
| 20260509103047 | 23 | 161 | 1.6 | 6.4 | 0.00 | 0.15 | 0.00 | 96 | 1008.9 |
| 20260509101522 | 23 | 161 | 0.0 | 4.8 | 0.00 | 0.15 | 0.00 | 96 | 1008.8 |
| 20260509100111 | 23 | 161 | 0.0 | 0.0 | 0.00 | 0.15 | 0.00 | 96 | 1008.8 |
| 20260509094614 | 23 | 161 | 0.0 | 0.0 | 0.00 | 0.15 | 0.00 | 96 | 1008.7 |
| 20260509093035 | 23 | 161 | 0.0 | 3.2 | 0.00 | 0.15 | 0.00 | 96 | 1008.7 |
| 20260509091528 | 23 | 161 | 0.0 | 4.8 | 0.00 | 0.15 | 0.00 | 96 | 1008.8 |
| 20260509084531 | 23 | 100 | 0.0 | 0.0 | 0.00 | 0.15 | 0.00 | 95 | 1008.6 |
| 20260509083109 | 23 | 99 | 0.0 | 3.2 | 0.00 | 0.15 | 0.00 | 95 | 1008.4 |
| 20260509081536 | 23 | 98 | 0.0 | 4.8 | 0.00 | 0.15 | 0.00 | 95 | 1008.8 |
| 20260509080008 | 23 | 142 | 3.2 | 9.7 | 0.00 | 0.15 | 0.00 | 95 | 1008.6 |
| 20260509074545 | 23 | 158 | 3.2 | 8.0 | 0.00 | 0.15 | 0.00 | 95 | 1008.6 |
| 20260509073035 | 23 | 159 | 1.6 | 11.3 | 0.00 | 0.15 | 0.00 | 95 | 1009.0 |
| 20260509071555 | 23 | 104 | 3.2 | 11.3 | 0.00 | 0.15 | 0.00 | 95 | 1009.2 |
| 20260509070024 | 23 | 138 | 3.2 | 9.7 | 0.00 | 0.15 | 0.00 | 95 | 1009.2 |
| 20260509064608 | 23 | 160 | 1.6 | 6.4 | 0.00 | 0.15 | 0.00 | 95 | 1009.1 |
| 20260509063035 | 23 | 148 | 0.0 | 12.9 | 0.00 | 0.15 | 0.00 | 95 | 1009.2 |
| 20260509061510 | 23 | 141 | 3.2 | 6.4 | 0.00 | 0.15 | 0.00 | 95 | 1009.2 |
| 20260509060052 | 23 | 144 | 1.6 | 6.4 | 0.00 | 0.15 | 0.00 | 95 | 1009.3 |
| 20260509054529 | 23 | 149 | 0.0 | 0.0 | 0.00 | 0.15 | 0.00 | 95 | 1009.4 |
| 20260509053105 | 23 | 111 | 0.0 | 0.0 | 0.00 | 0.15 | 0.00 | 95 | 1009.5 |